TimeEET,TemperatureF,Dew PointF,Humidity,Sea Level PressureIn,VisibilityMPH,Wind Direction,Wind SpeedMPH,Gust SpeedMPH,PrecipitationIn,Events,Conditions,WindDirDegrees,DateUTC
12:00 AM,86.0,39.2,19,29.80,-9999.0,North,6.9,-,N/A,,Clear,10,2013-06-13 22:00:00
1:00 AM,82.4,42.8,25,29.80,-9999.0,North,9.2,-,N/A,,Clear,360,2013-06-13 23:00:00
2:00 AM,81,42,16,29.78,6,North,6.9,,,,,0,2013-06-14 00:00:00
2:00 AM,80.6,42.8,26,29.80,-9999.0,North,6.9,-,N/A,,Clear,360,2013-06-14 00:00:00
3:00 AM,78.8,42.8,28,29.80,-9999.0,North,5.8,-,N/A,,Clear,10,2013-06-14 01:00:00
4:00 AM,77.0,42.8,29,29.80,-9999.0,North,4.6,-,N/A,,Clear,360,2013-06-14 02:00:00
5:00 AM,78.8,42.8,28,29.83,-9999.0,North,8.1,-,N/A,,Clear,360,2013-06-14 03:00:00
6:00 AM,80.6,46.4,30,29.83,-9999.0,North,6.9,-,N/A,,Clear,10,2013-06-14 04:00:00
7:00 AM,82.4,48.2,30,29.86,-9999.0,North,8.1,-,N/A,,Clear,360,2013-06-14 05:00:00
8:00 AM,85,50,20,29.83,6,North,12.7,,,,,0,2013-06-14 06:00:00
8:00 AM,86.0,50.0,29,29.86,-9999.0,North,12.7,-,N/A,,Clear,360,2013-06-14 06:00:00
9:00 AM,87.8,50.0,27,29.86,-9999.0,North,11.5,-,N/A,,Clear,350,2013-06-14 07:00:00
10:00 AM,89.6,51.8,27,29.86,-9999.0,North,10.4,-,N/A,,Clear,350,2013-06-14 08:00:00
11:00 AM,93.2,48.2,21,29.83,-9999.0,NNW,12.7,-,N/A,,Clear,340,2013-06-14 09:00:00
12:00 PM,95.0,48.2,20,29.83,-9999.0,NNW,11.5,-,N/A,,Clear,340,2013-06-14 10:00:00
1:00 PM,98.6,48.2,18,29.80,-9999.0,NNW,11.5,-,N/A,,Clear,340,2013-06-14 11:00:00
2:00 PM,100,48,10,29.75,6,North,11.5,,,,,350,2013-06-14 12:00:00
2:00 PM,100.4,48.2,17,29.80,-9999.0,North,11.5,-,N/A,,Clear,350,2013-06-14 12:00:00
3:00 PM,102.2,46.4,15,29.77,-9999.0,NW,11.5,-,N/A,,Clear,320,2013-06-14 13:00:00
4:00 PM,102.2,44.6,14,29.77,-9999.0,NNW,11.5,-,N/A,,Clear,330,2013-06-14 14:00:00
5:00 PM,100.4,44.6,15,29.77,-9999.0,NW,11.5,-,N/A,,Clear,310,2013-06-14 15:00:00
6:00 PM,96.8,44.6,17,29.77,-9999.0,North,11.5,-,N/A,,Clear,350,2013-06-14 16:00:00
7:00 PM,95.0,44.6,18,29.77,-9999.0,NNW,10.4,-,N/A,,Clear,340,2013-06-14 17:00:00
8:00 PM,91.4,44.6,20,29.80,-9999.0,North,8.1,-,N/A,,Clear,360,2013-06-14 18:00:00
9:00 PM,89.6,46.4,22,29.83,-9999.0,North,9.2,-,N/A,,Clear,10,2013-06-14 19:00:00
10:00 PM,87.8,44.6,22,29.83,-9999.0,NNW,10.4,-,N/A,,Clear,340,2013-06-14 20:00:00
11:00 PM,86.0,44.6,23,29.83,-9999.0,NW,11.5,-,N/A,,Clear,310,2013-06-14 21:00:00